Regional Weather Roundup
Issued by NWS

Home | Current Version | Previous Version | Graphics & Text | Print | Product List | Glossary Off
Versions: 1 2 3 4 5 6 7 8 9 10 11 12 13 14 15 16 17 18 19 20 21 22 23 24 25 26 27 28 29 30 31 32 33 34 35 36 37 38 39 40 41 42 43 44 45 46 47 48 49 50

000
ASUS43 KTOP 272059
RWRKS

WEATHER ROUNDUP FOR KANSAS
NATIONAL WEATHER SERVICE GOODLAND KS
400 PM CDT WED APR 27 2016

NOTE:  "FAIR" INDICATES FEW OR NO CLOUDS BELOW 12,000 FEET WITH NO
SIGNIFICANT WEATHER AND/OR OBSTRUCTIONS TO VISIBILITY.

KSZ001>006-013>018-027>032-041>047-272200-
NORTHWEST KANSAS

CITY           SKY/WX    TMP DP  RH WIND       PRES   REMARKS
GOODLAND       PTSUNNY   56  34  43 NW23G35   29.73S
HAYS           CLOUDY    55  37  50 NW24G32   29.67S
HILL CITY      CLOUDY    54  37  52 NW28G40   29.69R
RUSSELL        CLOUDY    57  41  55 NW24G31   29.64S
$$

KSZ061>065-074>080-084>089-272200-
SOUTHWEST KANSAS

CITY           SKY/WX    TMP DP  RH WIND       PRES   REMARKS
DODGE CITY     MOSUNNY   60  35  39 NW22G32   29.72S
ELKHART          N/A     64  32  30 NW6         N/A
GARDEN CITY    MOSUNNY   62  32  32 NW25G32   29.73S
GREAT BEND     CLOUDY    57  39  51 NW21G29   29.68S
LIBERAL        SUNNY     66  34  30 NW22G35   29.77S
$$

KSZ066>073-081>083-090>101-272200-
SOUTHEAST KANSAS

CITY           SKY/WX    TMP DP  RH WIND       PRES   REMARKS
CHANUTE        SUNNY     68  51  54 W25G35    29.62R
COFFEYVILLE    MOSUNNY   72  51  47 W18G28    29.64R
HUTCHINSON     PTSUNNY   66  44  45 W16       29.64S
MEDICINE LODGE   N/A     68  37  32 W15G30    29.68S
NEWTON         CLOUDY    61  43  51 W16       29.67S
PARSONS        MOSUNNY   69  52  54 SW16      29.64R
WICHITA INTL   MOSUNNY   65  46  50 W13       29.65F
WICHITA JABRA  PTSUNNY   63  47  55 W16       29.65S
WINFIELD       MOSUNNY   65  49  56 W16G25    29.69S
$$

KSZ007>012-019>026-033>040-048>060-102>105-272200-
NORTHEAST KANSAS

CITY           SKY/WX    TMP DP  RH WIND       PRES   REMARKS
CONCORDIA      CLOUDY    47  42  83 W18       29.61R
EMPORIA        PTSUNNY   62  50  64 W16G24    29.62R
LAWRENCE       CLOUDY    66  57  72 W13       29.55R THUNDER
MANHATTAN      CLOUDY    58  45  62 W15G21    29.61R
OLATHE IND     MOSUNNY   69  54  58 SW26G36   29.55R
OLATHE EXE     PTSUNNY   70  54  56 SW22G31   29.54S
SALINA         CLOUDY    61  45  55 NW18G28   29.62S
TOPEKA BILLARD CLOUDY    61  50  67 W18G29    29.56R
TOPEKA FORBES  CLOUDY    63  51  65 W21G29    29.56R
$$




USA.gov is the U.S. government's official web portal to all federal, state and local government web resources and services.